Jacksonville NAS, FL

3:27 PM EDT on May 28, 2017 (GMT -0400)
Jacksonville Naval Air Station

Weather History for KNIP - October, 2012

Change the Weather History Date:

Sunday, October 21, 2012

  Actual Average Record
Temperature  
Mean Temperature 70 °F -  
Max Temperature 79 °F 76 °F 89 °F (2006)
Min Temperature 61 °F 61 °F 48 °F (2011)
Cooling Degree Days 4    
Growing Degree Days 20 (Base 50)    
Moisture  
Dew Point 54 °F    
Average Humidity 60    
Maximum Humidity 81    
Minimum Humidity 40    
Precipitation  
Precipitation 0.00 in - - ()
Sea Level Pressure  
Sea Level Pressure 30.05 in    
Wind  
Wind Speed 7 mph (North)    
Max Wind Speed 12 mph    
Max Gust Speed -    
Visibility 10 miles    
Events      
Averages and records for this station are not official NWS values.
T = Trace of Precipitation, MM = Missing Value Source: NWS Daily Summary

Daily Weather History Graph

Daily Weather History Graph

Search for Another Location

Airport or City:

Trip Planner

Search our weather history database for the weather conditions in past years. The results will help you decide how hot, cold, wet, or windy it might be!

Date:

Astronomy

Oct. 21, 2012 Rise Set
Actual Time 7:33 AM EDT 6:48 PM EDT
Civil Twilight 7:08 AM EDT 7:13 PM EDT
Nautical Twilight 6:40 AM EDT 7:41 PM EDT
Astronomical Twilight 6:12 AM EDT 8:09 PM EDT
Moon 1:44 PM EDT (10/21) No Moon Set
Length of Visible Light 12h 04m
Length of Day
11h 15m
Waxing Crescent, 45% of the Moon is Illuminated
Oct 21
Waxing Crescent
Oct 21
First Quarter
Oct 29
Full
Nov 6
Last Quarter
Nov 13
New

Hourly Weather History & Observations

Time (EDT) Temp. Dew Point Humidity Pressure Visibility Wind Dir Wind Speed Gust Speed Precip Events Conditions
12:53 AM 66.9 °F 51.1 °F 57% 29.97 in 10.0 mi NW 4.6 mph - N/A   Clear
1:53 AM 64.0 °F 52.0 °F 65% 29.98 in 10.0 mi WNW 3.5 mph - N/A   Clear
2:53 AM 61.0 °F 54.0 °F 78% 29.98 in 10.0 mi West 3.5 mph - N/A   Clear
3:53 AM 61.0 °F 53.1 °F 75% 29.98 in 10.0 mi NW 4.6 mph - N/A   Clear
4:53 AM 62.1 °F 51.1 °F 67% 29.99 in 10.0 mi NW 3.5 mph - N/A   Clear
5:53 AM 61.0 °F 50.0 °F 67% 30.01 in 10.0 mi NNW 9.2 mph - N/A   Clear
6:53 AM 62.1 °F 52.0 °F 70% 30.03 in 10.0 mi NNW 6.9 mph - N/A   Clear
7:53 AM 61.0 °F 53.1 °F 75% 30.04 in 10.0 mi NNW 9.2 mph - N/A   Clear
8:53 AM 64.0 °F 53.1 °F 67% 30.06 in 10.0 mi North 11.5 mph - N/A   Clear
9:53 AM 68.0 °F 52.0 °F 56% 30.08 in 10.0 mi North 11.5 mph - N/A   Clear
10:53 AM 72.0 °F 53.1 °F 51% 30.08 in 10.0 mi North 9.2 mph - N/A   Clear
11:53 AM 73.9 °F 52.0 °F 46% 30.08 in 10.0 mi North 10.4 mph - N/A   Clear
12:53 PM 75.9 °F 52.0 °F 43% 30.08 in 10.0 mi NNE 9.2 mph - N/A   Partly Cloudy
1:53 PM 77.0 °F 51.1 °F 40% 30.06 in 10.0 mi North 5.8 mph - N/A   Clear
2:53 PM 78.1 °F 52.0 °F 40% 30.04 in 10.0 mi NE 6.9 mph - N/A   Clear
3:53 PM 78.1 °F 54.0 °F 43% 30.04 in 10.0 mi NE 9.2 mph - N/A   Clear
4:53 PM 77.0 °F 54.0 °F 45% 30.04 in 10.0 mi East 8.1 mph - N/A   Clear
5:53 PM 75.9 °F 54.0 °F 46% 30.05 in 10.0 mi East 9.2 mph - N/A   Clear
6:53 PM 73.0 °F 55.9 °F 55% 30.06 in 10.0 mi ENE 9.2 mph - N/A   Clear
7:53 PM 72.0 °F 57.9 °F 61% 30.07 in 10.0 mi NE 8.1 mph - N/A   Clear
8:53 PM 71.1 °F 59.0 °F 66% 30.08 in 10.0 mi NNE 9.2 mph - N/A   Clear
9:53 PM 71.1 °F 62.1 °F 73% 30.10 in 10.0 mi NNE 9.2 mph - N/A   Clear
10:53 PM 71.1 °F 63.0 °F 75% 30.11 in 10.0 mi NNE 6.9 mph - N/A   Partly Cloudy
11:53 PM 70.0 °F 64.0 °F 81% 30.10 in 10.0 mi North 8.1 mph - N/A   Partly Cloudy